Flag for U.S.A. Weather past 2 weeks in Hampton, Virginia, U.S.A.

Now
41 °F

Clear.


Feels Like: 39 °F
Forecast: 39 / 52 °F
Wind: 3 mph from Northwest

Location: Langley Air Force Base

Current Time: Dec 26, 2014 at 1:42:18 AM

Latest Report: Dec 26, 2014 at 12:58 AM


Visibility: 10 mi

Pressure: 30.27 "Hg

Humidity: 74%

Dew point: 33 °F

Location of HamptonLocation

Historic Weather in Hampton — Graph

°F

Hampton temperature yesterday

Maximum temperature yesterday: 67 °F (at 12:58 AM)
Minimum temperature yesterday: 37 °F (at 11:58 PM)
Average temperature yesterday: 54 °F

Past Weeks' High & Low Weather Summary

 TemperatureHumidityPressure
High68 °F (Dec 24, 2:03 PM)100% (Dec 13, 9:48 PM)30.38 "Hg (Dec 13, 9:48 PM)
Low28 °F (Dec 13, 6:58 AM)34% (Dec 12, 12:58 PM)29.66 "Hg (Dec 24, 9:58 PM)
Average43 °F76%30.08 "Hg
* Reported Dec 11 12:58 AM — Dec 26 12:58 AM, Hampton, Weather by CustomWeather, © 2014

Note: Actual official high and low records may vary slightly from our data, if they occured in-between our weather recording intervals... More about our weather records

Advertising

Hampton weather history for previous 24 hours

 ConditionsComfort  
Time TempWeatherWind HumidityBarometerVisibility
12:58 AM
Dec 26
41 °FClear.3 mph74%30.27 "Hg10 mi
11:58 PM
Dec 25
37 °FClear.6 mph89%30.26 "Hg10 mi
10:58 PM39 °FClear.5 mph82%30.24 "Hg10 mi
9:58 PM41 °FClear.3 mph82%30.23 "Hg10 mi
8:58 PM40 °FClear.5 mph83%30.24 "Hg10 mi
7:58 PM42 °FClear.5 mph83%30.20 "Hg10 mi
6:58 PM43 °FClear.2 mph76%30.17 "Hg10 mi
5:58 PM49 °FClear.5 mph57%30.14 "Hg10 mi
4:58 PM52 °FClear.5 mph50%30.13 "Hg10 mi
3:58 PM56 °FSunny.12 mph43%30.09 "Hg10 mi
2:58 PM57 °FSunny.10 mph47%30.05 "Hg10 mi
1:58 PM57 °FSunny.14 mph46%30.02 "Hg10 mi
12:58 PM57 °FSunny.15 mph44%29.99 "Hg10 mi
11:58 AM56 °FSunny.14 mph54%29.98 "Hg10 mi
10:58 AM54 °FPassing clouds.8 mph70%29.97 "Hg10 mi
9:58 AM55 °FPassing clouds.10 mph71%29.94 "Hg10 mi
8:58 AM56 °FPassing clouds.14 mph81%29.89 "Hg10 mi
7:58 AM58 °FPassing clouds.15 mph81%29.80 "Hg10 mi
6:58 AM61 °FPassing clouds.14 mph87%29.75 "Hg10 mi
5:58 AM59 °FLight rain. Passing clouds.3 mph93%29.72 "Hg10 mi
4:58 AM60 °FDrizzle. Mostly cloudy.8 mph90%29.70 "Hg10 mi
3:57 AM64 °FDrizzle. Overcast.20 mph83%29.70 "Hg10 mi
2:58 AM65 °FPassing clouds.8 mph89%29.70 "Hg10 mi
2:03 AM64 °FOvercast.6 mph94%29.67 "Hg10 mi
Weather by CustomWeather, © 2014

See weather overviewHow to use our weather pages